Estación de Contra Coronel
Ultimos registro cada 15 minutos 91
| N° | Estación | Fecha / Hora | Temperatura | Humedad | Lluvia | Velocidad | Dirección | Radiación | Presion |
| 91 | Contra Coronel | 07-05-2026 22:30 | 6,9 | 97,2 | 0 | 1,7 | 34 | 0,6 | 1016,9 |
| 90 | Contra Coronel | 07-05-2026 22:15 | 6,9 | 97,7 | 0,2 | 2 | 25 | 0,6 | 1016,9 |
| 89 | Contra Coronel | 07-05-2026 22:00 | 7,1 | 97,7 | 0 | 1,7 | 34 | 0,6 | 1017,4 |
| 88 | Contra Coronel | 07-05-2026 21:45 | 7,2 | 97 | 0 | 1,7 | 22 | 0,6 | 1017,7 |
| 87 | Contra Coronel | 07-05-2026 21:30 | 7,3 | 96,6 | 0 | 2 | 18 | 0,6 | 1017,7 |
| 86 | Contra Coronel | 07-05-2026 21:15 | 7,3 | 96,3 | 0 | 1 | 29 | 0,6 | 1018 |
| 85 | Contra Coronel | 07-05-2026 21:00 | 7,5 | 96,1 | 0 | 0,7 | 45 | 0,6 | 1018 |
| 84 | Contra Coronel | 07-05-2026 20:45 | 7,6 | 95,4 | 0 | 1 | 22 | 0,6 | 1018,1 |
| 83 | Contra Coronel | 07-05-2026 20:30 | 7,8 | 93,9 | 0 | 0 | 29 | 0,6 | 1018,3 |
| 82 | Contra Coronel | 07-05-2026 20:15 | 7,9 | 92,5 | 0 | 0 | 358 | 0,6 | 1018,6 |
| 81 | Contra Coronel | 07-05-2026 20:00 | 7,9 | 92,3 | 0 | 0 | 46 | 0,6 | 1018,7 |
| 80 | Contra Coronel | 07-05-2026 19:45 | 8 | 92,4 | 0 | 0 | 154 | 0,6 | 1018,8 |
| 79 | Contra Coronel | 07-05-2026 19:30 | 8,1 | 92 | 0 | 0 | 53 | 0,6 | 1018,9 |
| 78 | Contra Coronel | 07-05-2026 19:15 | 8,2 | 91,4 | 0 | 0 | 29 | 0,6 | 1019 |
| 77 | Contra Coronel | 07-05-2026 19:00 | 8,2 | 90,9 | 0 | 0 | 333 | 0,6 | 1019,1 |
| 76 | Contra Coronel | 07-05-2026 18:45 | 8,1 | 91,9 | 0 | 0 | 333 | 0,6 | 1019 |
| 75 | Contra Coronel | 07-05-2026 18:30 | 8,3 | 90,9 | 0 | 0 | 333 | 0,6 | 1019,2 |
| 74 | Contra Coronel | 07-05-2026 18:15 | 8,5 | 90,1 | 0 | 0 | 154 | 0,6 | 1019,1 |
| 73 | Contra Coronel | 07-05-2026 18:00 | 8,6 | 88,5 | 0 | 0,3 | 154 | 0,6 | 1019,1 |
| 72 | Contra Coronel | 07-05-2026 17:45 | 8,8 | 87,5 | 0 | 0,3 | 138 | 0,6 | 1019,2 |
| 71 | Contra Coronel | 07-05-2026 17:30 | 8,9 | 86,9 | 0 | 0,7 | 1 | 9,4 | 1019,3 |
| 70 | Contra Coronel | 07-05-2026 17:15 | 9,1 | 86,9 | 0 | 0 | 338 | 18,1 | 1019,3 |
| 69 | Contra Coronel | 07-05-2026 17:00 | 9,3 | 85,8 | 0 | 0,3 | 338 | 20,6 | 1019,6 |
| 68 | Contra Coronel | 07-05-2026 16:45 | 9,4 | 84,1 | 0 | 0,7 | 344 | 46,9 | 1019,6 |
| 67 | Contra Coronel | 07-05-2026 16:30 | 9,4 | 82,9 | 0 | 0,7 | 107 | 75,6 | 1019,8 |
| 66 | Contra Coronel | 07-05-2026 16:15 | 9,6 | 81,3 | 0 | 0,7 | 343 | 78,1 | 1020 |
| 65 | Contra Coronel | 07-05-2026 16:00 | 9,6 | 80 | 0 | 0,7 | 310 | 69,4 | 1020,2 |
| 64 | Contra Coronel | 07-05-2026 15:45 | 9,8 | 79,7 | 0 | 1,3 | 319 | 116,9 | 1020,1 |
| 63 | Contra Coronel | 07-05-2026 15:30 | 9,8 | 76,7 | 0 | 1 | 298 | 101,9 | 1020,5 |
| 62 | Contra Coronel | 07-05-2026 15:15 | 9,9 | 77,8 | 0 | 1,3 | 300 | 121,9 | 1020,4 |
| 61 | Contra Coronel | 07-05-2026 15:00 | 9,9 | 76,3 | 0 | 1 | 306 | 101,9 | 1020,5 |
| 60 | Contra Coronel | 07-05-2026 14:45 | 9,8 | 74,3 | 0 | 0,7 | 274 | 98,1 | 1020,5 |
| 59 | Contra Coronel | 07-05-2026 14:30 | 9,8 | 72,8 | 0 | 1,3 | 296 | 76,9 | 1020,5 |
| 58 | Contra Coronel | 07-05-2026 14:15 | 10,1 | 70,9 | 0 | 1 | 305 | 115,6 | 1020,6 |
| 57 | Contra Coronel | 07-05-2026 14:00 | 10,4 | 73,4 | 0 | 1,7 | 309 | 203,1 | 1020,7 |
| 56 | Contra Coronel | 07-05-2026 13:45 | 10,5 | 73,8 | 0 | 2 | 314 | 321,9 | 1020,8 |
| 55 | Contra Coronel | 07-05-2026 13:30 | 11 | 65,9 | 0 | 0,7 | 275 | 215,6 | 1021,2 |
| 54 | Contra Coronel | 07-05-2026 13:15 | 11,1 | 66,4 | 0 | 1 | 286 | 250,6 | 1021,1 |
| 53 | Contra Coronel | 07-05-2026 13:00 | 11 | 62,8 | 0 | 0,7 | 241 | 291,9 | 1021,1 |
| 52 | Contra Coronel | 07-05-2026 12:45 | 11 | 63,9 | 0 | 1 | 265 | 246,9 | 1021,3 |
| 51 | Contra Coronel | 07-05-2026 12:30 | 11,1 | 62,8 | 0 | 0,7 | 275 | 200,6 | 1021,2 |
| 50 | Contra Coronel | 07-05-2026 12:15 | 10,7 | 65,3 | 0 | 1,3 | 230 | 390,6 | 1021,2 |
| 49 | Contra Coronel | 07-05-2026 12:00 | 11,4 | 62,4 | 0 | 0,7 | 257 | 334,4 | 1021,3 |
| 48 | Contra Coronel | 07-05-2026 11:45 | 11,5 | 63,3 | 0 | 1,3 | 274 | 330,6 | 1021,5 |
| 47 | Contra Coronel | 07-05-2026 11:30 | 11,1 | 71,2 | 0 | 0,7 | 211 | 331,9 | 1021,3 |
| 46 | Contra Coronel | 07-05-2026 11:15 | 10,5 | 73,9 | 0 | 1,7 | 292 | 293,1 | 1021,4 |
| 45 | Contra Coronel | 07-05-2026 11:00 | 10,5 | 72,5 | 0 | 1 | 268 | 268,1 | 1021,5 |
| 44 | Contra Coronel | 07-05-2026 10:45 | 10,8 | 72,4 | 0 | 1,3 | 277 | 326,9 | 1021,4 |
| 43 | Contra Coronel | 07-05-2026 10:30 | 9,9 | 76,8 | 0 | 1,3 | 278 | 274,4 | 1021,3 |
| 42 | Contra Coronel | 07-05-2026 10:15 | 10,1 | 76,5 | 0 | 1,3 | 289 | 218,1 | 1021,3 |
| 41 | Contra Coronel | 07-05-2026 10:00 | 10 | 77,7 | 0 | 1,7 | 292 | 343,1 | 1021,5 |
| 40 | Contra Coronel | 07-05-2026 09:45 | 9,1 | 82,8 | 0 | 1,3 | 309 | 239,4 | 1021,5 |
| 39 | Contra Coronel | 07-05-2026 09:30 | 7,1 | 91,2 | 0 | 0,7 | 312 | 100,6 | 1021,5 |
| 38 | Contra Coronel | 07-05-2026 09:15 | 6,5 | 94,3 | 0 | 0 | 337 | 93,1 | 1021,2 |
| 37 | Contra Coronel | 07-05-2026 09:00 | 5,9 | 96,2 | 0 | 0,3 | 253 | 56,9 | 1021,2 |
| 36 | Contra Coronel | 07-05-2026 08:45 | 5,6 | 96,3 | 0 | 0 | 234 | 63,1 | 1021,3 |
| 35 | Contra Coronel | 07-05-2026 08:30 | 5,6 | 96,1 | 0 | 0 | 234 | 80,6 | 1021 |
| 34 | Contra Coronel | 07-05-2026 08:15 | 3,3 | 97,6 | 0 | 0 | 234 | 75,6 | 1021 |
| 33 | Contra Coronel | 07-05-2026 08:00 | 2,8 | 97,9 | 0 | 0 | 234 | 9,4 | 1020,9 |
| 32 | Contra Coronel | 07-05-2026 07:45 | 2,6 | 97,5 | 0 | 0 | 234 | 3,1 | 1020,7 |
| 31 | Contra Coronel | 07-05-2026 07:30 | 2,5 | 97 | 0 | 0 | 258 | 0,6 | 1020,5 |
| 30 | Contra Coronel | 07-05-2026 07:15 | 3,7 | 97 | 0 | 0 | 265 | 0,6 | 1020,6 |
| 29 | Contra Coronel | 07-05-2026 07:00 | 4 | 96,9 | 0 | 0 | 265 | 0,6 | 1020,6 |
| 28 | Contra Coronel | 07-05-2026 06:45 | 3,7 | 96,6 | 0 | 0 | 265 | 0,6 | 1020,5 |
| 27 | Contra Coronel | 07-05-2026 06:30 | 3 | 95,3 | 0 | 0 | 265 | 0,6 | 1020,3 |
| 26 | Contra Coronel | 07-05-2026 06:15 | 4 | 93,6 | 0 | 0 | 265 | 0,6 | 1020,3 |
| 25 | Contra Coronel | 07-05-2026 06:00 | 4,9 | 91,3 | 0 | 0,3 | 236 | 0,6 | 1020,4 |
| 24 | Contra Coronel | 07-05-2026 05:45 | 5,6 | 91,1 | 0 | 0 | 225 | 0,6 | 1020,4 |
| 23 | Contra Coronel | 07-05-2026 05:30 | 5,2 | 94,6 | 0 | 0,3 | 251 | 0,6 | 1020,6 |
| 22 | Contra Coronel | 07-05-2026 05:15 | 3,8 | 95,1 | 0 | 0 | 270 | 0,6 | 1020,3 |
| 21 | Contra Coronel | 07-05-2026 05:00 | 3,5 | 92,4 | 0 | 0 | 270 | 0,6 | 1019,9 |
| 20 | Contra Coronel | 07-05-2026 04:45 | 4,6 | 89,6 | 0 | 0 | 271 | 0,6 | 1019,9 |
| 19 | Contra Coronel | 07-05-2026 04:30 | 5,2 | 86,9 | 0 | 0 | 267 | 0,6 | 1019,8 |
| 18 | Contra Coronel | 07-05-2026 04:15 | 6,3 | 82 | 0 | 0,3 | 256 | 0,6 | 1019,8 |
| 17 | Contra Coronel | 07-05-2026 04:00 | 7 | 79,9 | 0 | 0,3 | 202 | 0,6 | 1019,4 |
| 16 | Contra Coronel | 07-05-2026 03:45 | 7,6 | 77,1 | 0 | 1 | 187 | 0,6 | 1019,3 |
| 15 | Contra Coronel | 07-05-2026 03:30 | 7,6 | 78,1 | 0 | 2,7 | 178 | 0,6 | 1019,3 |
| 14 | Contra Coronel | 07-05-2026 03:15 | 7,4 | 82,6 | 0 | 0,7 | 201 | 0,6 | 1019,5 |
| 13 | Contra Coronel | 07-05-2026 03:00 | 7,2 | 84,6 | 0 | 0,7 | 264 | 0,6 | 1019,3 |
| 12 | Contra Coronel | 07-05-2026 02:45 | 7,4 | 84,8 | 0 | 0,7 | 275 | 0,6 | 1019,1 |
| 11 | Contra Coronel | 07-05-2026 02:30 | 7,5 | 89,6 | 0 | 0,7 | 261 | 0,6 | 1019 |
| 10 | Contra Coronel | 07-05-2026 02:15 | 7,6 | 89,3 | 0 | 0,7 | 263 | 0,6 | 1018,7 |
| 9 | Contra Coronel | 07-05-2026 02:00 | 7,4 | 90,7 | 0 | 0,3 | 274 | 0,6 | 1018,4 |
| 8 | Contra Coronel | 07-05-2026 01:45 | 7,4 | 91 | 0 | 0 | 261 | 0,6 | 1018,2 |
| 7 | Contra Coronel | 07-05-2026 01:30 | 7,1 | 93,2 | 0 | 0,3 | 288 | 0,6 | 1018 |
| 6 | Contra Coronel | 07-05-2026 01:15 | 6,3 | 94 | 0 | 0 | 282 | 0,6 | 1017,9 |
| 5 | Contra Coronel | 07-05-2026 01:00 | 6,7 | 92,9 | 0 | 0,3 | 270 | 0,6 | 1017,7 |
| 4 | Contra Coronel | 07-05-2026 00:45 | 7,3 | 92,9 | 0 | 0,7 | 258 | 0,6 | 1017,8 |
| 3 | Contra Coronel | 07-05-2026 00:30 | 7,3 | 92,6 | 0 | 0,3 | 257 | 0,6 | 1017,7 |
| 2 | Contra Coronel | 07-05-2026 00:15 | 7,6 | 92,4 | 0 | 0 | 216 | 0,6 | 1017,5 |
| 1 | Contra Coronel | 07-05-2026 00:00 | 7,8 | 90,7 | 0 | 0,7 | 271 | 0,6 | 1017,4 |